This is the latest recevied weather packets stored in our database for station/object IZ3TCG-13. If no packets are shown the sender has not sent any weather packets the latest 10 day(s).
| Time | Temp. | Humidity | Pressure | Rain* | Wind** | Luminosity | Snow |
|---|---|---|---|---|---|---|---|
| 1777875123 | 18.89° C | 69% | 1011.4 hPa | 0 mm | - | - | - |
| 1777874643 | 17.78° C | 70% | 1011.5 hPa | 0 mm | - | - | - |
| 1777873335 | 16.11° C | 74% | 1011.4 hPa | 0 mm | - | - | - |
| 1777872484 | 15° C | 78% | 1011.4 hPa | 0 mm | - | - | - |
| 1777872003 | 15° C | 79% | 1011.2 hPa | 0 mm | - | - | - |
| 1777869976 | 13.89° C | 82% | 1011 hPa | 0 mm | - | - | - |
| 1777869364 | 13.89° C | 83% | 1010.9 hPa | 0 mm | - | - | - |
| 1777868884 | 13.89° C | 84% | 1011 hPa | 0 mm | - | - | - |
| 1777868644 | 13.89° C | 84% | 1011 hPa | 0 mm | - | - | - |
| 1777867924 | 13.33° C | 85% | 1010.6 hPa | 0 mm | - | - | - |
| 1777867816 | 13.33° C | 85% | 1010.8 hPa | 0 mm | - | - | - |
| 1777866963 | 13.33° C | 86% | 1010.7 hPa | 0 mm | - | - | - |
| 1777863604 | 14.44° C | 83% | 1010.9 hPa | 0 mm | - | - | - |
| 1777863364 | 14.44° C | 83% | 1010.9 hPa | 0 mm | - | - | - |
| 1777861444 | 14.44° C | 85% | 1010.9 hPa | 0 mm | - | - | - |
| 1777860724 | 13.89° C | 85% | 1010.8 hPa | 0 mm | - | - | - |
| 1777859044 | 13.89° C | 86% | 1010.9 hPa | 0 mm | - | - | - |
| 1777857603 | 13.89° C | 87% | 1010.9 hPa | 0 mm | - | - | - |
| 1777856536 | 13.89° C | 87% | 1010.9 hPa | 0 mm | - | - | - |
| 1777853523 | 14.44° C | 85% | 1011.1 hPa | 0 mm | - | - | - |
| 1777852804 | 15° C | 83% | 1011.2 hPa | 0 mm | - | - | - |
| 1777851843 | 15° C | 85% | 1011.6 hPa | 0 mm | - | - | - |
| 1777851604 | 15° C | 85% | 1011.3 hPa | 0 mm | - | - | - |
| 1777851364 | 15° C | 84% | 1011.3 hPa | 0 mm | - | - | - |
| 1777850644 | 15.56° C | 83% | 1011.5 hPa | 0 mm | - | - | - |
* Rain latest hour (hover to see other rain measurements)
** Current wind speed in m/s (hover to see current wind gust speed)